Location: Modena
(44.6670°N, 10.9170°E)
Time: 13:20:16
(UTC+01:00)

ISS - Visible Passes

Search period start: 24 January 2019 00:00
Search period end: 03 February 2019 00:00
Orbit: 404 x 410 km, 51.6° (Epoch: 24 January)

Date Brightness Start Highest point End Pass type
(mag) Time Alt. Az. Time Alt. Az. Time Alt. Az.
24 Jan -2.1 17:46:46 10° S 17:49:16 20° SE 17:51:48 10° E visible
24 Jan -2.7 19:22:17 10° WSW 19:24:47 45° W 19:24:47 45° W visible
25 Jan -3.9 18:30:53 10° SW 18:34:11 81° SSE 18:35:41 30° ENE visible
25 Jan -0.4 20:08:03 10° WNW 20:08:24 12° WNW 20:08:24 12° WNW visible
26 Jan -2.6 19:16:22 10° W 19:19:13 36° NNW 19:19:13 36° NNW visible
27 Jan -3.2 18:24:44 10° WSW 18:27:57 51° NNW 18:30:00 20° NE visible
27 Jan -0.6 20:02:14 10° WNW 20:02:43 13° NW 20:02:43 13° NW visible
28 Jan -2.3 19:10:32 10° WNW 19:13:24 26° N 19:13:26 26° N visible
29 Jan -2.5 18:18:48 10° W 18:21:49 32° NNW 18:24:07 15° NE visible
29 Jan -0.8 19:56:14 10° NW 19:56:50 13° NW 19:56:50 13° NW visible
30 Jan -2.2 19:04:37 10° WNW 19:07:21 23° N 19:07:30 23° N visible
31 Jan -2.2 18:12:54 10° WNW 18:15:43 25° N 18:18:09 12° NE visible
31 Jan -1.1 19:49:59 10° NW 19:50:52 16° NW 19:50:52 16° NW visible
01 Feb -2.3 18:58:29 10° NW 19:01:16 25° N 19:01:32 24° NNE visible
02 Feb -2.2 18:06:51 10° NW 18:09:37 23° N 18:12:12 11° NE visible
02 Feb -1.5 19:43:33 10° NW 19:44:55 21° NW 19:44:55 21° NW visible
